Location: Sluknov
(51.0170°N, 14.4670°E)
Time: 10:09:47
(UTC+01:00)

ARIANE 6 FM1 Upper Stage - Pass Details

Date: 23 February 2026
Orbit: 523 x 607 km, 62.0° (Epoch: 7 March)

Event Time Altitude Azimuth Distance (km) Brightness Sun altitude
Rises 18:37:51 0° 296° (WNW) 2,658 7.3 -11.0°
Reaches altitude 10° 18:41:58 10° 254° (WSW) 1,766 6.6 -11.6°
Maximum altitude 18:42:35 10° 245° (WSW) 1,747 6.3 -11.7°
Drops below altitude 10° 18:43:12 10° 236° (WSW) 1,767 6.1 -11.8°
Sets 18:47:20 0° 194° (SSW) 2,663 6.3 -12.5°
